Decatur, IL

12:18 AM CST on December 11, 2017 (GMT -0600)
Decatur

Weather History for KDEC - November, 2011

Change the Weather History Date:

Thursday, November 24, 2011

  Actual Average Record
Temperature  
Mean Temperature 46 °F 39 °F  
Max Temperature 50 °F 47 °F 64 °F (2006)
Min Temperature 41 °F 31 °F 11 °F (2013)
Degree Days  
Heating Degree Days 19 26  
Month to date heating degree days 375 498  
Since 1 July heating degree days 775 916  
Cooling Degree Days 0 0  
Month to date cooling degree days 0 0  
Year to date cooling degree days 1327 1048  
Moisture  
Dew Point 42 °F    
Average Humidity 93    
Maximum Humidity 100    
Minimum Humidity 86    
Precipitation  
Precipitation 0.00 in 0.11 in 1.55 in (2010)
Month to date precipitation 2.95 2.72  
Year to date precipitation 31.15 35.20  
Sea Level Pressure  
Sea Level Pressure 30.25 in    
Wind  
Wind Speed 14 mph (SSW)    
Max Wind Speed 21 mph    
Max Gust Speed 28 mph    
Visibility 5 miles    
Events      
T = Trace of Precipitation, MM = Missing Value Source: NWS Daily Summary

Daily Weather History Graph

Daily Weather History Graph

Search for Another Location

Airport or City:

Trip Planner

Search our weather history database for the weather conditions in past years. The results will help you decide how hot, cold, wet, or windy it might be!

Date:

Astronomy

Nov. 24, 2011 Rise Set
Actual Time 6:50 AM CST 4:33 PM CST
Civil Twilight 6:20 AM CST 5:03 PM CST
Nautical Twilight 5:47 AM CST 5:36 PM CST
Astronomical Twilight 5:15 AM CST 6:08 PM CST
Moon 6:07 AM CST (11/24) 4:04 PM CST (11/24)
Length of Visible Light 10h 42m
Length of Day
9h 43m
Waning Crescent, 0% of the Moon is Illuminated
Nov 24
Waning Crescent
Nov 25
New
Dec 2
First Quarter
Dec 10
Full
Dec 17
Last Quarter

Hourly Weather History & Observations

Time (CST) Temp. Windchill Dew Point Humidity Pressure Visibility Wind Dir Wind Speed Gust Speed Precip Events Conditions
12:54 AM 43.0 °F 37.7 °F 42.1 °F 97% 30.29 in 4.0 mi SW 9.2 mph - N/A   Overcast
1:54 AM 42.1 °F 34.2 °F 42.1 °F 100% 30.29 in 3.0 mi SSW 16.1 mph 20.7 mph N/A   Overcast
2:09 AM 42.8 °F 35.8 °F 41.0 °F 93% 30.28 in 2.5 mi SW 13.8 mph - N/A   Overcast
2:49 AM 42.8 °F 37.5 °F 42.8 °F 100% 30.29 in 1.5 mi SW 9.2 mph - N/A   Overcast
2:54 AM 42.1 °F 37.7 °F 42.1 °F 100% 30.30 in 1.2 mi SW 6.9 mph - N/A   Overcast
3:32 AM 42.8 °F 37.0 °F 42.8 °F 100% 30.28 in 0.8 mi SW 10.4 mph - N/A   Overcast
3:42 AM 42.8 °F 36.6 °F 41.0 °F 93% 30.28 in 1.2 mi SW 11.5 mph - N/A   Overcast
3:54 AM 42.1 °F 35.2 °F 41.0 °F 96% 30.30 in 1.0 mi SSW 12.7 mph - N/A   Overcast
4:22 AM 42.8 °F 35.8 °F 41.0 °F 93% 30.29 in 3.0 mi SSW 13.8 mph - N/A   Overcast
4:52 AM 42.8 °F 36.6 °F 41.0 °F 93% 30.29 in 2.0 mi SSW 11.5 mph - N/A   Overcast
4:54 AM 42.1 °F 35.7 °F 41.0 °F 96% 30.30 in 1.8 mi SSW 11.5 mph - N/A   Overcast
5:15 AM 42.8 °F 36.2 °F 41.0 °F 93% 30.29 in 2.0 mi SSW 12.7 mph - N/A   Overcast
5:28 AM 42.8 °F 37.5 °F 41.0 °F 93% 30.29 in 3.0 mi SW 9.2 mph - N/A   Overcast
5:37 AM 42.8 °F 36.6 °F 41.0 °F 93% 30.29 in 2.5 mi SSW 11.5 mph - N/A   Overcast
5:49 AM 42.8 °F 36.6 °F 41.0 °F 93% 30.29 in 3.0 mi SSW 11.5 mph - N/A   Overcast
5:54 AM 41.0 °F 33.9 °F 41.0 °F 100% 30.30 in 3.0 mi SSW 12.7 mph - N/A   Overcast
6:54 AM 42.1 °F 35.7 °F 41.0 °F 96% 30.31 in 4.0 mi SSW 11.5 mph - N/A   Overcast
7:54 AM 42.1 °F 35.2 °F 41.0 °F 96% 30.32 in 4.0 mi SSW 12.7 mph - N/A   Overcast
8:54 AM 43.0 °F 36.4 °F 41.0 °F 93% 30.31 in 5.0 mi South 12.7 mph - N/A   Overcast
9:54 AM 44.1 °F 37.4 °F 41.0 °F 89% 30.32 in 6.0 mi SSW 13.8 mph - N/A   Overcast
10:54 AM 45.0 °F 39.3 °F 42.1 °F 90% 30.30 in 7.0 mi South 11.5 mph - N/A   Overcast
11:54 AM 46.0 °F 39.3 °F 43.0 °F 89% 30.28 in 7.0 mi SSW 16.1 mph - N/A   Overcast
12:54 PM 46.4 °F 40.1 °F 42.8 °F 87% 30.25 in 9.0 mi SSW 15.0 mph 20.7 mph N/A   Overcast
1:49 PM 48.2 °F - 44.6 °F 87% 30.23 in 10.0 mi South 11.5 mph - N/A   Mostly Cloudy
1:54 PM 48.2 °F - 44.6 °F 87% 30.23 in 10.0 mi South 13.8 mph - N/A   Mostly Cloudy
2:22 PM 48.2 °F - 44.6 °F 87% 30.22 in 10.0 mi South 12.7 mph - N/A   Scattered Clouds
2:54 PM 48.9 °F - 44.1 °F 83% 30.22 in 10.0 mi South 13.8 mph - N/A   Clear
3:54 PM 48.9 °F - 44.1 °F 83% 30.22 in 10.0 mi South 13.8 mph - N/A   Clear
4:54 PM 46.0 °F 40.6 °F 43.0 °F 89% 30.22 in 8.0 mi South 11.5 mph - N/A   Clear
5:54 PM 46.0 °F 39.9 °F 43.0 °F 89% 30.22 in 9.0 mi South 13.8 mph - N/A   Clear
6:54 PM 44.6 °F 37.2 °F 42.8 °F 93% 30.19 in 10.0 mi South 17.3 mph - N/A   Clear
7:54 PM 44.1 °F 37.1 °F 42.1 °F 93% 30.20 in 8.0 mi South 15.0 mph - N/A   Clear
8:54 PM 44.1 °F 36.8 °F 42.1 °F 93% 30.19 in 7.0 mi South 16.1 mph - N/A   Clear
9:11 PM 42.8 °F 34.5 °F 42.8 °F 100% 30.18 in 6.0 mi South 18.4 mph - N/A   Partly Cloudy
9:36 PM 42.8 °F 35.4 °F 42.8 °F 100% 30.17 in 6.0 mi South 15.0 mph - N/A   Mostly Cloudy
9:54 PM 43.0 °F 34.5 °F 42.1 °F 97% 30.18 in 5.0 mi South 19.6 mph 25.3 mph N/A   Overcast
10:01 PM 42.8 °F 34.3 °F 42.8 °F 100% 30.16 in 5.0 mi South 19.6 mph - N/A   Overcast
10:54 PM 42.8 °F 34.5 °F 42.8 °F 100% 30.16 in 5.0 mi South 18.4 mph 24.2 mph N/A   Overcast
11:54 PM 42.1 °F 36.1 °F 41.0 °F 96% 30.16 in 5.0 mi South 10.4 mph - N/A   Overcast